TimePST,TemperatureF,Dew PointF,Humidity,Sea Level PressureIn,VisibilityMPH,Wind Direction,Wind SpeedMPH,Gust SpeedMPH,PrecipitationIn,Events,Conditions,WindDirDegrees,DateUTC
12:56 AM,54.0,51.1,90,29.98,10.0,West,9.2,-,0.00,Rain,Light Rain,270,2014-01-30 08:56:00
1:56 AM,53.1,51.1,93,29.95,10.0,West,9.2,-,0.00,Rain,Light Rain,270,2014-01-30 09:56:00
2:56 AM,53.1,50.0,89,29.93,10.0,WNW,5.8,-,0.00,,Overcast,290,2014-01-30 10:56:00
3:56 AM,53.1,51.1,93,29.93,10.0,WNW,8.1,-,N/A,,Overcast,290,2014-01-30 11:56:00
4:56 AM,53.1,50.0,89,29.92,10.0,Calm,Calm,-,N/A,,Overcast,0,2014-01-30 12:56:00
5:56 AM,53.1,50.0,89,29.91,10.0,Calm,Calm,-,N/A,,Overcast,0,2014-01-30 13:56:00
6:56 AM,53.1,50.0,89,29.91,10.0,West,11.5,-,0.00,Rain,Light Rain,270,2014-01-30 14:56:00
7:56 AM,53.1,50.0,89,29.91,10.0,West,11.5,-,0.00,,Mostly Cloudy,260,2014-01-30 15:56:00
8:56 AM,53.1,48.9,86,29.92,9.0,West,12.7,-,N/A,,Mostly Cloudy,280,2014-01-30 16:56:00
9:18 AM,55.4,50.0,82,29.91,9.0,West,15.0,-,N/A,,Mostly Cloudy,280,2014-01-30 17:18:00
9:56 AM,55.9,50.0,80,29.92,9.0,West,17.3,-,N/A,,Mostly Cloudy,280,2014-01-30 17:56:00
10:56 AM,55.0,48.9,80,29.94,9.0,West,16.1,-,N/A,,Overcast,280,2014-01-30 18:56:00
11:56 AM,55.0,48.0,77,29.93,10.0,West,19.6,-,N/A,,Mostly Cloudy,270,2014-01-30 19:56:00
12:56 PM,57.9,46.9,67,29.90,10.0,West,24.2,27.6,N/A,,Partly Cloudy,280,2014-01-30 20:56:00
1:56 PM,57.9,46.0,65,29.88,10.0,WSW,16.1,-,N/A,,Partly Cloudy,250,2014-01-30 21:56:00
2:56 PM,55.9,46.0,69,29.88,10.0,West,20.7,25.3,N/A,,Scattered Clouds,260,2014-01-30 22:56:00
3:56 PM,55.9,46.0,69,29.88,10.0,West,16.1,24.2,N/A,,Scattered Clouds,260,2014-01-30 23:56:00
4:56 PM,54.0,46.0,75,29.88,10.0,WSW,15.0,-,N/A,,Scattered Clouds,250,2014-01-31 00:56:00
5:56 PM,54.0,46.0,75,29.88,10.0,WSW,13.8,23.0,N/A,,Mostly Cloudy,250,2014-01-31 01:56:00
6:56 PM,53.1,46.0,77,29.88,10.0,West,12.7,23.0,N/A,,Mostly Cloudy,260,2014-01-31 02:56:00
7:25 PM,53.6,46.4,77,29.89,10.0,WSW,11.5,-,N/A,,Mostly Cloudy,240,2014-01-31 03:25:00
7:56 PM,53.1,46.0,77,29.90,10.0,WSW,13.8,23.0,N/A,,Mostly Cloudy,250,2014-01-31 03:56:00
8:56 PM,53.1,46.0,77,29.91,10.0,WSW,13.8,23.0,N/A,,Overcast,250,2014-01-31 04:56:00
9:56 PM,53.1,46.0,77,29.92,10.0,West,23.0,33.4,N/A,,Overcast,270,2014-01-31 05:56:00
10:56 PM,53.1,46.0,77,29.93,10.0,West,19.6,-,0.00,,Overcast,270,2014-01-31 06:56:00
11:56 PM,53.1,46.0,77,29.92,10.0,West,15.0,-,N/A,,Overcast,270,2014-01-31 07:56:00